RH
91 89 88 88 89 88 85 79 74 69 66 62 60 59 60 61 61 61 60 60 60 59 58 57 56 56 56 57 59 61 63 65 66 66 66 65 64 63 63 63 64 66 68 71 74 77 78 81 84 87 88 90 92 94 95 94 94 95 95 95 95 95 95 95 96 96 96 96 96 97 97 96 96 96 96 96 96 96 97 97 97 96 95 96 97 97
93 92 92 91 92 92 90 84 77 72 69 66 64 63 63 64 63 61 59 59 59 59 59 58 56 55 53 53 54 55 57 60 62 64 66 67 67 68 68 68 69 70 71 73 75 77 78 80 83 85 86 87 89 92 94 94 94 95 95 95 95 95 96 96 96 97 96 97 97 97 97 98 97 97 96 96 96 96 96 97 97 96 95 96 97 98
93 93 93 93 93 93 92 85 78 72 70 68 67 67 67 67 65 63 60 59 59 59 60 61 60 58 55 53 52 52 54 56 58 60 62 63 66 68 70 73 75 77 77 77 77 77 77 78 80 81 83 84 86 89 92 94 95 96 96 96 96 96 96 97 97 97 98 98 98 98 97 98 97 97 96 97 96 96 96 96 96 96 97 95 94 93
93 94 94 93 93 93 92 86 80 74 71 71 70 70 71 71 69 66 62 61 60 61 62 63 64 63 60 56 54 54 55 58 59 60 61 63 65 68 71 74 77 79 79 77 75 74 73 74 76 78 80 81 83 85 88 91 93 95 97 97 97 97 97 97 97 97 96 97 97 97 97 97 96 95 95 95 95 95 95 95 94 94 94 93 91 89
94 94 94 94 93 93 92 88 84 79 77 77 76 76 76 76 75 72 68 66 65 64 65 65 66 66 65 61 59 58 60 62 64 64 65 66 67 68 69 71 73 74 75 74 72 70 69 70 72 74 77 78 79 82 83 85 88 91 95 96 97 97 97 97 96 95 95 96 96 96 96 95 95 94 94 93 93 92 92 93 94 94 94 94 95 95
94 94 94 94 94 93 92 90 88 85 83 83 83 82 81 81 81 80 77 74 72 70 70 69 69 68 68 66 65 64 65 67 68 68 68 67 67 67 67 67 68 70 72 72 71 70 68 69 69 71 73 75 77 79 81 84 88 91 95 95 95 96 96 95 95 95 95 95 95 95 96 95 95 95 95 95 94 93 91 92 93 94 95 96 96 97
94 94 93 93 93 93 92 91 90 89 87 87 86 85 84 84 85 85 83 81 79 78 77 75 72 70 70 71 71 72 72 71 71 70 69 68 67 66 65 64 65 68 70 72 73 72 72 72 72 73 73 76 76 77 80 85 89 93 95 95 95 95 95 95 95 95 95 95 95 95 95 95 95 95 95 95 95 95 94 94 94 95 96 96 97 97
93 93 93 93 93 93 93 92 92 91 90 90 90 89 87 86 85 85 84 84 84 84 84 81 77 74 74 76 78 79 79 78 76 75 72 71 69 68 66 65 64 65 69 72 75 76 76 77 76 76 76 76 76 76 77 82 86 90 93 94 94 95 96 95 95 95 95 95 96 96 96 96 96 96 96 96 96 95 95 95 95 96 96 96 96 96
93 93 93 93 93 93 94 93 93 92 91 92 92 92 90 88 87 87 86 86 87 88 90 88 83 79 75 76 80 83 85 83 81 79 78 76 74 72 70 67 65 64 66 69 73 76 77 78 78 78 77 76 76 76 76 77 80 83 85 86 87 89 92 93 93 94 94 94 94 95 94 94 94 95 95 96 96 95 95 95 95 96 96 95 95 95
93 93 93 93 94 94 94 94 93 93 93 93 93 93 92 90 90 91 91 90 89 91 93 93 89 84 77 76 78 83 87 86 84 81 80 78 76 73 70 67 64 62 61 62 65 67 70 73 75 76 77 77 77 77 77 77 78 79 79 79 80 80 82 84 86 89 91 90 90 90 88 88 88 88 90 92 93 94 95 95 95 96 96 95 95 95
93 94 94 94 94 95 95 94 93 93 93 93 93 93 92 90 92 93 94 93 93 93 93 93 91 87 82 78 78 81 87 89 87 83 80 78 76 73 69 66 63 60 56 54 54 55 58 62 66 70 73 75 76 76 76 77 77 78 79 79 79 78 78 78 79 80 82 85 86 86 85 84 82 82 83 86 88 90 92 93 94 94 94 94 94 94
95 95 95 95 95 95 95 95 95 94 94 94 94 94 93 92 93 95 95 95 95 94 94 94 92 88 84 81 80 81 85 88 88 86 83 80 77 75 72 68 64 59 54 49 46 44 45 48 51 57 63 69 72 74 75 76 77 77 78 79 79 79 79 79 79 80 80 81 82 82 83 84 84 84 83 83 84 85 85 88 89 89 90 89 88 88
95 95 95 95 95 95 95 95 95 95 94 95 95 95 95 93 93 95 96 95 95 95 95 94 91 86 79 79 82 85 87 88 87 86 85 83 80 78 76 72 67 61 56 49 44 40 39 40 41 44 50 60 68 74 76 77 78 78 78 79 79 80 80 80 81 81 81 82 82 82 82 84 86 86 86 84 82 80 77 77 77 78 80 81 82 82
96 96 96 96 96 95 95 95 94 94 94 95 95 94 93 93 93 95 96 96 96 95 94 94 91 85 78 79 84 88 92 91 90 87 85 84 83 82 81 77 70 64 59 53 46 41 41 42 40 38 39 51 62 73 78 79 79 79 79 78 78 79 79 79 80 80 81 82 82 83 84 86 87 88 88 87 85 83 79 76 74 73 74 75 76 78
95 95 94 95 95 95 94 94 93 92 92 90 87 86 88 90 93 95 96 96 95 95 94 93 90 87 82 83 87 92 95 94 93 90 86 83 82 83 85 82 75 68 61 58 51 45 44 46 42 37 34 39 49 60 71 75 77 77 76 76 76 76 76 77 77 78 79 80 82 84 86 88 90 91 90 90 90 89 88 86 85 84 84 82 81 81
94 94 94 94 94 94 94 93 93 92 89 88 87 87 87 90 93 96 96 96 95 94 95 95 95 93 90 87 88 92 95 95 94 92 87 83 81 82 87 87 82 73 64 61 56 51 49 49 46 42 37 36 39 45 55 63 68 71 71 70 69 69 70 72 74 75 77 78 81 84 87 89 91 92 92 92 92 93 93 93 93 93 93 93 92 92
94 94 94 95 95 94 94 93 93 92 91 91 92 93 94 95 95 95 95 94 94 94 95 96 96 96 94 88 85 86 93 95 95 93 88 82 79 79 85 89 86 79 67 60 56 53 54 53 50 47 44 42 42 43 47 54 60 64 65 65 65 65 66 68 71 74 77 80 83 86 89 91 92 93 93 94 94 94 94 95 95 94 94 94 94 94
94 94 94 94 94 94 94 93 93 93 93 94 94 94 95 95 94 94 93 93 93 93 95 95 96 96 96 95 89 84 90 94 95 94 91 83 77 76 83 90 90 82 69 59 53 52 57 57 55 53 51 50 50 50 51 55 58 62 65 68 69 71 73 75 78 81 83 86 89 91 93 94 94 95 95 95 96 96 96 96 95 95 95 95 94 94
94 94 94 94 93 93 94 94 94 94 94 95 95 95 95 94 93 93 92 92 93 94 95 96 96 96 96 96 90 87 92 94 96 96 94 91 81 73 77 88 89 82 70 59 53 52 57 58 57 56 56 56 57 58 60 62 65 68 70 73 76 80 85 87 89 91 91 93 94 95 95 95 95 95 95 96 96 96 96 96 96 96 95 95 95 95
94 95 95 95 94 94 94 94 94 94 94 93 94 94 95 94 93 93 94 94 94 94 94 95 95 96 96 96 94 93 93 95 96 96 95 95 84 72 70 83 89 87 76 61 53 52 58 59 59 58 59 60 62 65 68 70 72 75 77 81 85 89 91 93 93 94 94 95 95 95 94 94 93 93 93 94 95 95 96 96 96 96 95 95 95 95
94 95 95 94 94 95 95 95 92 88 83 86 91 95 95 95 95 94 94 94 94 94 94 95 96 96 96 96 95 94 94 95 95 96 96 93 83 73 71 82 88 86 75 61 55 55 61 63 63 62 62 64 68 71 75 77 80 83 86 88 90 92 94 94 94 94 94 95 94 94 93 91 90 90 90 91 91 92 93 93 93 93 93 94 94 95
93 93 89 86 85 85 83 78 73 69 69 78 87 94 94 94 95 95 94 94 94 94 94 95 95 96 96 95 95 94 93 93 93 93 94 94 89 82 72 78 83 83 72 63 60 62 68 70 68 67 66 69 72 76 79 82 84 87 92 93 94 95 95 96 95 95 94 94 93 92 90 89 88 88 87 88 88 88 88 87 87 87 88 90 92 93
84 79 72 70 70 71 73 72 70 69 70 77 84 88 88 88 90 92 92 93 94 95 95 95 95 95 94 94 92 88 82 80 82 87 91 94 90 81 70 75 81 83 78 73 72 74 78 76 73 70 70 72 74 77 79 82 85 87 90 93 94 95 96 95 95 94 94 93 92 90 88 88 88 87 87 87 86 86 85 83 80 78 80 84 86 87
79 76 72 72 73 75 77 78 78 78 78 79 80 80 79 84 88 92 93 94 94 95 96 95 95 95 94 94 89 82 74 76 82 89 93 95 91 83 76 82 87 88 85 81 82 85 85 81 78 75 74 74 75 76 78 81 83 85 89 91 93 95 95 95 94 93 93 92 91 89 88 87 87 87 86 85 84 83 81 78 76 75 77 81 83 84
87 85 83 82 83 84 86 89 90 90 90 90 89 88 88 90 92 93 94 94 95 95 95 95 95 95 95 94 88 80 73 72 77 85 93 94 93 90 86 88 91 92 89 86 87 89 89 87 83 80 76 74 74 74 76 79 81 83 85 88 91 93 94 94 93 93 91 90 89 88 87 86 85 84 84 82 81 79 77 75 72 71 74 78 82 84
88 89 92 92 92 92 93 93 93 94 95 95 94 94 94 94 94 94 94 95 95 95 95 95 95 95 94 92 87 80 73 72 78 85 92 94 95 93 87 87 89 90 90 90 90 91 93 92 89 85 79 74 71 71 73 76 78 81 83 85 88 90 92 92 92 91 90 88 86 84 81 80 80 80 79 79 78 76 75 73 71 70 71 73 75 76
79 86 93 94 93 93 92 92 92 92 92 92 93 93 92 93 93 94 94 95 94 94 94 94 94 94 94 92 88 82 77 79 82 85 90 92 93 90 83 81 85 89 91 91 92 93 94 93 92 90 85 77 72 69 70 73 76 79 81 83 85 87 88 88 88 87 86 84 82 80 79 78 78 79 79 78 77 76 75 73 71 70 70 71 71 70
74 85 93 90 85 81 78 80 80 78 77 79 81 82 80 83 86 90 93 94 94 93 93 94 94 94 93 92 89 85 80 80 80 81 85 89 90 89 84 85 89 93 94 94 94 94 94 93 93 92 90 84 78 73 72 73 75 78 80 82 84 85 85 85 84 84 84 83 83 82 82 82 82 82 81 80 79 77 75 73 71 70 70 71 71 69
74 85 87 78 70 64 61 60 60 60 61 64 66 67 66 70 75 81 88 92 93 93 93 93 93 93 92 91 89 86 83 80 80 83 88 92 93 93 92 93 94 95 96 96 95 95 95 94 94 93 93 90 86 83 79 76 76 77 79 82 83 85 85 85 85 85 84 84 84 83 83 83 83 83 82 80 79 77 75 73 72 70 69 69 67 64
81 88 86 76 69 65 64 63 62 62 62 63 66 68 70 72 75 79 84 90 92 93 92 91 91 91 92 92 91 91 90 88 88 90 94 94 95 95 95 95 95 95 95 95 95 95 96 95 95 94 93 92 91 89 84 79 77 78 79 82 83 85 86 86 86 86 85 85 84 84 83 83 83 82 82 80 79 78 76 75 73 72 70 69 67 64
90 93 91 87 81 76 71 67 65 63 63 65 68 71 75 77 80 82 85 87 88 87 86 87 88 89 92 93 93 94 95 91 90 91 94 94 95 95 95 95 95 95 95 93 92 93 96 95 95 94 94 93 92 89 82 77 76 77 80 82 84 85 86 88 88 88 87 86 85 85 84 84 83 83 82 81 80 79 77 76 75 73 72 71 70 68
93 93 93 91 84 76 68 64 62 61 63 66 69 73 78 83 85 86 85 84 83 82 81 83 85 86 89 91 93 94 95 91 90 91 93 93 94 94 94 94 94 94 94 93 92 92 95 95 95 95 95 93 92 87 80 76 75 76 79 82 84 85 87 89 90 90 89 88 86 85 85 84 84 83 82 82 81 80 78 77 76 75 74 74 73 71
90 88 85 81 74 66 61 60 60 61 64 67 71 76 83 87 88 86 83 81 79 78 77 78 80 82 85 87 90 93 93 92 92 92 93 93 93 93 94 94 94 93 93 93 93 94 94 95 95 95 95 94 93 90 84 78 76 76 79 82 84 85 87 90 91 91 89 87 86 85 84 84 83 82 82 81 81 80 79 78 77 76 76 76 76 75
80 75 69 64 60 57 56 57 60 62 66 70 74 80 87 90 89 85 81 78 76 74 73 74 76 80 87 89 92 93 93 93 93 93 93 93 94 93 93 93 93 93 92 93 94 94 95 95 95 95 95 95 94 93 90 83 80 79 80 82 84 85 87 89 89 89 87 86 85 84 83 83 82 82 81 81 80 80 79 79 78 77 77 77 78 78
70 65 60 57 56 55 56 59 63 67 71 75 79 85 91 92 90 86 82 79 77 75 74 74 75 80 89 92 93 93 93 93 93 93 93 93 93 93 93 93 93 93 93 93 94 94 95 95 95 96 96 95 95 94 93 89 87 85 84 84 85 86 87 88 87 87 85 84 83 83 82 82 81 81 80 80 80 80 79 78 77 77 76 76 76 76
64 62 60 59 58 59 60 64 69 74 78 82 86 90 93 92 91 88 85 83 80 78 76 75 75 77 84 89 92 93 93 92 92 92 93 93 93 92 91 90 91 92 92 93 93 94 95 95 95 95 95 96 95 95 94 93 91 90 88 87 86 87 88 88 87 85 84 83 82 81 81 81 81 80 80 80 79 79 78 77 77 76 75 74 73 73
62 60 59 60 62 64 67 71 76 81 85 88 91 93 93 93 91 89 87 84 82 80 79 77 77 77 80 84 88 91 92 91 91 90 90 89 88 86 85 87 89 91 91 92 93 94 94 95 95 95 95 95 95 95 95 94 93 92 92 90 90 90 90 89 86 84 83 82 82 81 81 82 81 81 80 80 80 79 77 76 76 75 74 72 72 71
60 58 59 61 65 70 73 76 80 85 90 92 93 94 93 93 92 90 87 84 82 81 80 80 80 80 81 83 85 87 87 87 86 84 83 81 79 80 81 83 84 86 89 90 91 93 93 94 94 95 95 95 95 95 95 95 94 94 93 92 93 93 92 90 87 84 82 82 82 83 83 83 83 82 82 81 80 79 77 76 75 74 73 72 71 70
59 59 62 67 72 76 79 80 83 87 92 93 94 93 93 92 91 89 88 85 83 82 82 83 84 84 85 85 84 84 83 81 79 77 77 76 78 80 82 84 83 83 84 87 90 92 93 93 94 95 95 95 95 95 95 95 95 94 94 94 94 94 93 90 88 85 83 83 83 84 84 84 84 84 83 82 81 80 78 76 75 73 73 71 70 69
62 66 71 75 79 82 83 83 85 87 91 93 93 93 92 91 90 89 87 85 84 83 83 84 85 86 85 84 83 81 79 77 76 76 76 77 79 82 86 88 90 90 91 92 93 94 94 94 94 95 95 95 95 95 95 95 95 95 95 95 94 93 91 88 86 84 83 83 84 85 86 85 85 84 83 82 81 79 78 76 74 73 72 72 71 69
70 75 80 83 85 85 85 85 86 87 88 88 89 90 91 91 91 89 85 83 82 82 82 84 85 84 83 82 80 78 76 75 74 75 76 78 82 86 91 92 92 93 93 93 94 94 94 94 95 95 95 95 95 95 95 95 95 95 95 95 94 92 89 86 84 83 83 85 86 87 88 87 86 85 83 81 79 78 76 75 74 73 73 72 71 70
77 83 87 88 89 89 88 88 88 88 88 89 90 91 90 88 86 84 83 83 83 83 83 84 85 85 84 83 81 78 75 74 74 76 79 82 87 91 92 93 93 93 93 93 94 94 94 94 95 95 95 95 95 95 95 95 95 96 96 95 94 93 91 88 85 84 85 87 88 88 88 87 86 84 81 79 76 75 75 74 74 74 73 73 72 71
85 89 92 91 91 91 91 91 92 92 93 93 91 89 85 84 84 84 85 85 86 85 85 86 87 88 89 89 86 82 76 74 74 77 82 87 90 92 93 93 93 93 93 93 94 94 94 94 95 95 95 95 95 95 95 95 95 95 95 95 94 94 94 90 87 84 84 86 86 87 87 86 85 82 78 76 74 73 73 73 73 73 73 73 72 71
91 92 91 91 91 92 93 93 93 93 92 90 86 84 82 83 84 84 85 86 85 84 84 86 89 90 91 91 89 84 77 73 72 76 82 89 92 93 93 93 93 93 93 93 93 94 94 94 94 94 94 95 95 95 95 95 95 95 94 94 94 94 94 92 89 86 85 86 87 88 88 86 84 80 75 73 71 71 71 71 71 71 72 72 72 72
89 90 89 91 92 93 93 92 92 91 89 87 85 83 82 82 84 85 87 85 84 83 84 88 90 91 92 92 90 85 78 73 71 73 79 88 92 93 93 93 93 93 93 93 93 93 94 94 94 94 94 94 95 95 95 95 95 94 94 93 93 92 92 90 89 88 88 89 89 89 89 86 83 78 73 70 69 69 69 69 70 70 71 72 73 73
89 90 91 92 92 93 92 92 91 90 89 87 85 83 81 81 82 82 83 84 84 85 87 90 92 92 92 91 88 84 78 74 71 70 73 80 86 90 91 92 92 93 93 93 93 94 94 94 94 94 94 94 94 94 94 94 94 94 93 92 91 90 90 89 90 90 91 91 91 90 88 84 79 75 71 68 67 67 68 69 70 71 72 73 73 73
92 92 92 92 93 93 92 92 91 91 90 88 85 82 80 79 80 81 83 84 85 87 90 92 92 92 91 89 87 84 82 78 74 71 71 74 77 80 82 83 85 87 90 91 92 93 93 94 94 94 94 94 94 94 93 93 93 93 92 92 91 91 91 90 91 91 92 92 90 87 84 79 76 73 70 67 66 66 67 69 71 72 73 73 73 72
92 91 92 92 93 93 92 91 91 91 90 89 86 83 78 77 77 79 82 84 87 90 92 92 92 92 91 88 86 85 85 84 81 77 75 75 75 75 75 76 76 78 81 85 87 90 91 92 93 93 93 94 94 94 94 93 93 93 93 93 93 93 93 92 92 92 92 90 87 83 79 76 74 72 69 67 66 65 66 69 72 73 73 72 71 70
91 91 93 93 93 93 92 92 91 91 90 89 87 83 77 75 75 78 81 84 88 91 92 92 92 92 91 88 86 85 86 86 86 84 82 81 80 79 78 78 77 77 78 80 82 84 85 85 86 87 90 92 93 94 94 94 94 94 94 94 94 94 94 93 93 91 89 86 83 79 76 74 73 71 71 68 66 64 64 68 71 73 72 71 70 70
92 93 93 93 93 93 92 92 91 90 89 88 86 83 78 75 75 76 79 84 88 91 92 92 92 91 91 88 86 85 87 89 89 88 87 87 87 87 87 85 84 83 82 83 83 83 82 80 79 79 83 87 91 93 94 94 94 94 94 94 94 94 94 93 92 90 86 82 80 78 76 75 74 72 71 69 67 65 65 68 71 72 71 70 71 72
92 93 93 92 92 92 92 91 91 90 89 87 85 83 81 79 80 81 82 86 89 91 92 92 92 91 91 89 87 86 88 90 91 90 90 90 91 91 91 89 88 88 89 89 90 89 88 84 81 80 81 85 89 92 93 94 94 94 94 94 94 94 93 93 91 89 85 82 80 79 78 76 75 73 72 70 69 69 68 70 71 71 70 71 73 73
Wind_Speed
27 28 29 28 28 29 30 30 31 31 30 27 24 21 20 20 20 21 22 23 23 23 23 21 20 18 17 16 15 14 14 15 16 17 18 19 21 22 22 23 24 24 24 24 24 24 24 24 24 24 23 23 23 23 23 23 23 22 22 23 23 23 23 23 22 23 23 23 23 23 24 24 25 25 26 26 27 27 28 28 28 29 29 28 28 28
27 28 27 27 27 27 29 30 29 29 29 28 25 23 22 23 23 23 23 24 24 25 25 24 23 21 19 17 16 15 15 15 15 15 16 16 17 18 19 20 20 21 21 22 22 23 23 24 23 23 23 23 23 23 23 23 23 23 23 23 23 23 23 23 23 23 22 23 23 23 23 23 24 24 24 25 26 26 27 27 28 29 29 29 28 27
27 27 26 25 25 26 27 29 29 28 28 28 27 25 25 25 26 25 25 25 25 26 26 26 25 24 22 20 18 18 18 18 17 17 16 16 16 16 17 17 18 19 20 20 21 22 22 22 23 23 22 22 22 22 23 23 23 23 23 24 24 24 24 24 23 23 23 23 23 23 23 23 23 24 24 24 25 25 26 27 27 28 29 30 30 29
26 26 26 25 25 26 27 28 29 28 28 28 28 27 27 27 28 27 27 27 27 27 27 27 26 26 24 22 21 21 21 21 21 20 19 19 18 18 17 17 18 18 18 19 19 20 20 21 21 21 21 21 21 21 22 22 23 23 23 24 24 24 24 25 25 25 25 25 25 25 25 25 25 25 25 25 25 25 26 26 27 27 28 29 30 30
27 26 26 26 27 27 27 28 28 28 28 28 28 28 28 28 29 29 29 28 28 28 28 28 27 27 26 25 24 23 23 24 23 23 22 22 21 20 19 18 17 17 16 17 17 18 18 19 19 19 19 19 20 20 21 21 22 22 23 23 23 23 24 24 25 25 25 25 25 25 25 25 26 26 26 27 27 27 27 27 27 27 27 28 28 29
29 28 28 28 28 28 28 27 27 28 28 28 28 28 28 28 29 29 29 29 29 29 29 29 28 28 27 27 27 26 26 26 25 25 24 23 23 22 20 19 17 15 14 14 14 15 15 16 16 17 17 18 18 19 20 20 21 21 22 22 23 23 23 24 24 24 24 24 24 24 24 25 25 26 26 26 27 27 28 28 28 28 28 28 28 28
32 31 30 29 29 29 28 28 27 27 27 27 28 28 28 28 28 28 28 29 29 29 29 29 29 29 28 28 28 28 28 28 27 27 26 25 24 23 21 20 17 15 13 12 11 11 12 12 13 14 15 16 16 17 18 19 20 20 21 22 22 22 23 23 23 23 23 23 23 23 24 24 24 25 25 25 26 26 27 27 28 28 28 28 28 29
34 33 30 29 29 29 28 27 26 26 26 27 27 28 29 29 29 29 29 29 28 28 29 29 29 29 28 28 28 28 29 29 28 28 27 26 25 24 22 20 18 16 13 12 11 10 10 10 11 11 12 13 14 15 16 17 18 19 20 21 21 22 22 22 22 22 22 23 23 23 24 24 24 24 24 24 25 25 25 26 26 27 27 27 28 28
32 33 31 30 30 30 30 29 27 26 25 26 27 28 30 31 30 30 29 29 28 27 27 28 29 30 29 29 29 28 29 29 29 28 28 27 25 24 22 21 19 17 15 14 12 11 11 10 10 10 11 12 12 13 14 15 17 18 19 19 20 20 20 21 21 21 22 22 23 24 24 24 25 25 25 25 25 25 25 25 25 25 25 26 26 27
32 32 33 32 31 29 29 30 29 27 26 26 27 28 29 31 30 29 29 29 28 27 26 27 28 30 31 31 30 29 29 30 30 30 28 27 25 24 22 20 18 17 16 15 14 14 13 12 11 11 11 11 12 13 13 14 15 16 17 17 18 18 18 19 19 19 20 21 21 22 23 24 24 25 25 25 25 25 24 24 24 24 25 25 25 26
31 31 32 32 30 29 28 29 29 29 28 28 29 30 30 29 28 28 29 29 28 27 26 26 27 29 31 32 32 31 30 30 30 30 29 28 26 24 21 19 18 17 16 16 16 16 15 14 13 12 12 12 12 12 13 13 14 14 15 16 16 17 17 17 18 18 19 19 20 21 21 22 23 23 24 24 24 24 24 24 24 25 25 25 26 26
30 30 30 30 29 29 28 28 27 27 27 28 28 28 27 27 26 26 28 29 29 28 27 27 27 29 30 31 32 32 31 31 31 30 29 28 26 24 23 21 19 18 18 18 18 18 18 18 17 15 14 12 11 11 11 12 12 13 14 15 16 17 17 18 18 19 19 20 21 21 22 22 22 22 23 23 23 23 23 23 24 24 25 26 26 26
30 30 28 28 28 27 26 26 25 25 24 25 25 25 26 26 26 26 28 30 30 28 28 28 29 31 32 32 32 31 31 31 31 30 29 27 26 25 24 23 22 21 21 21 21 21 21 22 21 19 17 15 12 11 10 11 11 12 13 14 15 17 18 19 20 20 21 22 22 23 23 23 23 23 22 23 23 23 23 23 23 24 24 25 25 26
27 26 24 24 24 24 24 25 25 25 25 24 25 27 27 27 28 29 29 29 27 26 27 29 31 33 34 33 31 30 30 30 30 29 28 27 26 25 25 25 25 24 24 25 25 24 25 25 25 22 20 17 14 12 11 11 11 12 12 13 14 16 17 19 20 21 22 23 24 25 25 24 24 23 23 22 22 22 22 23 23 23 24 24 24 25
24 24 25 25 25 25 25 25 25 26 27 27 29 30 30 30 30 28 26 24 25 26 28 30 32 33 33 32 30 28 27 26 26 27 27 27 27 26 26 26 27 27 27 28 28 28 27 27 27 25 22 19 17 15 14 13 13 13 13 13 14 15 17 18 20 21 23 24 25 25 25 25 24 24 23 22 21 21 21 21 22 22 23 23 23 24
27 27 28 28 27 27 26 26 26 28 30 30 31 32 32 31 27 24 22 23 26 28 28 28 28 30 31 30 29 26 24 22 23 25 27 29 28 27 26 26 28 29 29 30 30 30 30 29 28 26 24 22 20 18 17 16 15 15 15 16 17 17 18 19 20 21 23 24 24 24 24 24 23 22 22 21 21 21 21 21 21 22 22 22 23 23
28 27 27 27 27 27 27 27 27 29 30 31 32 32 31 28 26 26 26 27 29 29 27 27 27 27 28 29 29 26 23 21 22 25 29 31 30 29 27 27 28 30 31 31 31 31 31 30 30 28 26 24 22 21 20 19 19 19 19 19 19 20 20 20 21 21 22 22 22 22 22 22 21 21 21 21 21 21 21 22 22 22 22 23 23 23
28 27 27 27 27 27 27 27 28 29 31 32 31 29 28 28 29 31 31 31 30 29 27 27 26 26 26 27 29 28 25 23 24 27 30 32 31 30 28 27 27 29 31 32 32 31 31 31 30 29 27 24 22 21 20 20 20 20 20 21 21 20 20 20 20 21 21 21 21 21 21 20 20 20 20 21 21 21 21 22 22 22 23 23 23 23
28 28 29 29 29 29 29 29 30 31 31 30 29 29 30 32 33 33 33 32 30 28 27 26 27 27 28 30 31 31 28 25 25 27 29 30 30 30 28 26 27 28 30 32 32 32 31 31 31 29 27 24 22 20 19 19 19 19 20 20 20 20 20 20 21 21 20 20 20 20 19 19 19 20 20 20 21 21 21 21 22 22 23 23 23 24
29 29 29 30 30 30 30 30 30 30 29 28 27 27 29 31 32 33 32 31 29 29 29 28 29 29 30 31 33 32 30 27 26 26 27 28 30 30 29 26 25 27 29 32 33 32 31 31 30 29 26 23 20 18 17 17 17 18 18 19 19 20 20 20 20 20 20 19 19 19 19 19 19 19 20 20 20 21 21 21 21 21 22 23 23 23
31 32 32 30 30 30 31 31 31 30 29 29 28 27 27 28 30 31 32 31 30 30 29 29 30 31 32 34 34 32 30 27 25 24 24 27 29 30 28 26 25 26 29 32 33 32 31 30 29 27 24 21 18 17 16 16 16 16 17 17 18 18 18 18 18 18 18 19 19 18 18 18 18 18 19 19 19 20 20 21 21 21 22 22 22 23
32 34 34 34 33 33 34 35 34 32 31 29 28 27 27 28 28 30 31 31 31 30 30 30 31 32 33 34 33 30 27 24 23 23 25 27 29 29 28 26 25 26 29 32 32 31 30 28 27 24 20 18 16 15 15 15 15 15 15 16 16 17 17 17 17 17 18 18 18 17 17 17 17 17 18 18 18 19 19 20 20 21 21 22 22 23
32 33 33 32 32 32 33 33 32 30 29 28 27 28 28 29 29 30 31 31 31 31 31 31 32 33 31 29 26 24 23 23 24 24 24 25 27 28 28 27 26 26 28 29 29 28 27 26 25 21 18 15 14 14 14 14 14 13 13 14 14 15 16 16 16 17 17 17 17 17 17 17 17 17 17 18 18 18 19 20 21 22 22 22 22 23
31 31 31 31 31 32 32 32 32 32 30 30 29 29 29 29 30 30 30 29 30 31 33 35 35 33 30 26 23 22 24 25 24 23 22 23 26 27 27 26 24 25 26 27 26 26 25 25 23 20 16 14 14 14 14 13 13 13 12 12 13 14 14 15 15 16 16 16 16 16 16 16 17 17 17 18 19 20 21 22 22 22 23 22 23 23
32 33 34 34 34 34 34 35 35 34 33 33 32 31 30 30 30 30 30 29 30 31 33 34 34 32 30 29 28 28 28 27 26 23 21 22 24 25 25 25 24 25 26 26 25 24 25 25 22 19 16 14 14 14 14 14 13 12 12 12 12 13 13 14 14 15 15 15 15 16 16 17 17 17 18 19 20 21 22 22 23 23 23 23 23 22
34 35 36 36 35 34 34 35 35 35 34 33 32 31 30 30 30 29 29 30 31 32 32 33 32 30 30 29 29 29 28 27 24 22 20 21 23 24 26 25 24 24 25 25 24 23 23 23 21 19 17 17 17 17 16 15 13 12 12 11 12 12 12 13 13 13 14 14 15 16 17 17 18 19 20 21 21 22 22 22 22 22 23 23 23 23
35 36 35 33 32 30 30 30 31 31 31 30 28 28 28 29 30 31 32 31 30 29 29 29 28 27 27 26 26 26 26 25 24 22 21 21 22 24 25 24 23 23 24 24 23 22 21 21 20 19 19 20 20 19 18 16 14 12 11 11 11 11 11 11 11 12 12 13 14 15 16 17 18 19 20 21 21 22 22 22 22 22 22 23 23 23
33 31 28 26 24 23 23 23 25 26 26 25 25 26 28 29 31 32 33 32 29 26 25 25 25 24 24 24 25 25 26 25 25 24 22 20 21 24 24 23 22 21 22 23 22 21 21 20 19 19 20 21 21 21 19 18 16 14 12 11 11 10 10 10 11 11 12 13 14 15 16 17 18 19 20 21 21 21 21 21 21 21 22 22 23 23
30 27 22 20 19 20 22 23 25 26 27 27 28 28 29 29 30 30 31 31 30 27 25 25 24 24 24 25 26 26 26 26 24 22 18 17 19 21 21 20 19 19 19 20 21 21 20 18 17 17 17 18 19 20 20 19 18 16 15 14 13 12 12 12 12 13 13 14 15 16 16 17 18 19 19 20 20 20 20 21 21 21 21 22 23 23
29 25 21 19 20 21 23 25 27 29 30 30 30 30 29 29 28 28 28 29 29 28 26 25 25 24 24 24 24 23 22 20 18 15 14 14 17 18 18 18 17 17 17 18 20 20 19 18 17 16 15 16 17 19 20 21 21 19 18 16 15 14 14 14 14 14 15 15 16 16 16 17 17 18 18 19 19 20 20 20 20 21 21 22 23 24
27 23 21 21 23 25 27 29 30 31 32 32 31 30 28 27 25 25 25 25 25 25 25 24 24 23 22 21 19 18 17 16 16 16 15 15 17 19 20 20 20 20 20 20 20 20 19 19 18 17 16 18 20 21 23 23 22 21 19 18 17 16 15 15 15 16 16 16 16 16 16 16 17 17 18 18 19 19 20 20 20 20 21 22 23 24
24 22 23 25 27 30 31 32 33 33 33 32 30 28 25 24 23 22 22 22 22 22 23 23 23 23 23 21 20 20 20 21 21 20 18 18 21 23 24 24 25 26 25 24 23 22 21 21 20 20 20 21 23 24 25 24 22 20 19 18 17 16 15 15 16 16 17 17 17 17 16 16 17 17 17 18 19 19 20 20 20 20 20 21 23 24
26 27 29 29 31 33 34 34 34 33 32 30 27 24 22 20 20 20 20 20 20 20 20 21 22 22 23 23 23 23 24 24 22 21 19 20 23 25 25 25 25 26 26 25 24 23 22 22 22 22 22 22 23 24 24 23 22 20 19 18 17 16 16 15 16 16 17 17 17 17 16 16 16 17 17 18 18 19 19 19 19 19 20 21 22 23
32 33 34 34 34 35 34 34 32 31 28 26 23 20 19 18 18 18 18 18 18 18 19 20 20 21 22 21 22 23 23 23 21 19 19 21 22 24 24 25 25 25 26 24 23 22 22 23 23 22 21 21 21 22 23 23 22 20 19 18 17 16 15 15 15 16 17 17 17 16 16 16 16 16 17 17 18 18 19 19 19 19 19 20 20 20
33 34 35 35 35 35 34 32 29 26 24 21 18 17 17 17 18 18 17 17 18 18 19 19 20 21 20 20 21 23 24 23 22 21 22 22 23 25 26 28 28 27 25 24 23 22 22 22 21 20 20 20 21 22 23 23 22 20 19 18 17 16 15 15 15 16 16 16 16 16 16 16 16 16 16 17 17 17 18 18 18 18 19 20 20 20
33 34 35 35 35 35 33 30 26 23 20 17 16 15 16 17 18 18 18 18 18 19 19 20 21 21 21 21 22 24 25 26 26 26 25 26 26 28 29 30 31 29 26 24 23 22 22 22 22 21 20 20 21 21 21 21 21 19 19 18 17 15 15 14 15 15 16 16 16 16 16 16 16 16 16 16 16 17 17 17 17 18 19 20 20 21
32 33 34 34 34 33 30 27 23 20 18 16 15 15 16 17 18 18 18 18 19 20 20 21 22 22 23 23 24 25 26 28 28 28 28 28 28 29 29 29 29 27 24 23 22 23 23 23 23 23 22 21 19 19 19 20 20 19 18 17 16 15 14 14 15 16 16 16 16 16 15 15 16 16 16 15 16 16 16 16 17 17 18 19 20 21
32 33 33 33 32 30 27 24 21 19 17 16 15 15 16 17 17 18 18 19 19 20 21 22 22 22 22 23 23 24 26 27 27 27 27 27 26 26 25 26 27 27 25 24 24 25 25 25 24 22 22 20 19 19 18 19 19 19 18 17 15 14 14 14 15 16 16 16 16 16 16 16 16 16 15 15 15 15 15 15 16 17 18 19 19 20
32 32 32 31 29 27 24 22 20 19 17 16 16 16 16 17 17 17 18 19 20 20 21 22 22 21 21 21 22 22 23 23 23 23 22 22 22 22 22 23 24 24 24 23 23 23 24 24 23 22 21 20 20 19 19 18 19 19 18 16 15 15 14 15 15 16 16 16 16 16 16 16 16 16 15 15 14 14 15 15 15 16 17 18 19 19
31 30 29 28 26 24 22 21 20 19 18 17 17 17 17 17 16 17 17 18 19 20 21 21 21 21 21 21 21 21 20 20 19 18 17 17 18 18 19 19 20 19 19 18 18 19 20 21 22 22 21 21 20 20 19 18 19 18 17 16 16 16 15 15 15 15 15 15 15 16 16 16 16 16 15 15 14 14 14 15 15 16 16 18 19 20
28 28 27 25 24 22 21 20 19 19 18 18 17 17 16 15 15 16 17 18 19 20 20 20 20 20 21 21 20 19 18 17 16 15 14 14 15 15 15 15 15 15 15 16 16 17 17 19 20 21 21 21 21 20 19 18 17 17 16 16 16 16 16 15 15 15 15 15 16 16 17 17 17 16 15 15 14 14 14 15 15 16 16 17 18 19
26 25 24 24 23 21 20 19 18 18 18 17 16 15 13 13 14 16 17 17 18 18 18 18 19 19 20 20 20 19 17 16 14 13 13 12 12 11 12 12 13 13 14 15 16 16 16 17 18 19 19 19 20 19 19 17 16 15 14 14 14 15 15 15 15 14 14 15 16 16 17 17 17 16 15 15 14 14 14 14 15 15 16 17 18 18
24 23 22 22 21 21 19 18 16 15 15 14 13 12 11 12 13 14 15 16 16 17 17 17 18 18 19 20 20 20 18 16 14 12 11 10 9 8 8 9 10 11 12 14 15 15 15 15 16 16 17 17 17 18 17 16 15 15 14 14 14 14 14 15 16 15 15 15 15 16 16 16 16 16 15 15 14 13 13 13 14 15 16 16 17 17
22 22 22 22 21 19 17 15 13 11 11 10 10 10 11 12 13 13 14 14 15 16 16 16 17 18 19 20 21 22 20 16 12 10 9 7 6 6 6 7 8 9 10 11 13 13 14 14 14 14 14 15 15 16 16 16 15 15 15 14 14 14 14 15 16 15 15 15 15 15 16 16 16 16 16 15 14 13 13 13 13 14 15 15 16 16
21 21 21 20 19 17 15 12 10 9 9 9 10 11 12 13 12 13 13 15 15 16 15 15 16 17 18 19 21 22 20 16 12 8 6 5 5 5 6 7 8 9 9 10 11 11 12 13 13 13 13 13 14 15 15 15 15 15 15 14 14 15 15 16 15 15 15 15 15 15 15 16 16 16 16 15 14 13 12 13 13 14 14 14 14 15
18 18 18 18 17 15 12 10 9 9 10 11 12 13 13 14 14 14 14 14 14 14 14 15 15 17 18 21 22 22 19 16 11 8 6 6 6 6 7 8 9 9 10 11 12 12 12 13 13 13 13 13 14 14 15 15 14 14 15 15 15 14 15 15 14 14 14 14 15 15 15 15 15 15 15 14 13 13 12 12 13 13 13 13 13 13
17 18 18 16 14 11 10 10 10 11 12 14 15 16 15 15 15 14 14 14 14 14 14 15 16 18 20 21 21 20 18 15 11 9 7 7 7 8 9 9 10 11 11 12 12 13 13 13 13 12 12 12 13 14 15 14 14 14 14 14 14 13 13 13 13 13 13 13 13 13 14 14 14 15 14 14 13 12 12 11 11 12 12 12 12 12
17 17 15 13 11 11 12 12 13 14 16 17 18 18 18 17 16 15 15 14 14 13 14 16 18 20 21 21 19 17 15 13 11 10 9 9 9 10 11 11 12 12 12 12 12 13 12 12 11 11 10 11 12 13 14 14 14 14 13 13 13 12 12 12 12 11 11 11 12 12 13 13 13 14 14 13 13 12 10 10 9 10 10 10 11 11
17 16 15 15 15 15 14 15 16 17 18 19 20 21 21 20 18 16 15 14 13 14 16 18 19 20 21 20 18 15 13 12 10 9 9 9 10 12 13 14 14 14 14 13 12 12 12 11 10 10 9 10 10 11 12 13 12 12 12 12 11 11 11 11 10 9 9 9 10 11 11 12 12 12 12 12 12 11 9 7 6 8 9 9 10 10
16 16 16 16 16 16 16 17 18 19 20 21 21 22 22 22 20 18 15 14 13 14 17 19 20 21 21 20 18 15 12 11 10 9 9 9 11 13 14 16 17 17 16 15 13 12 11 11 10 9 8 8 9 9 9 9 9 9 9 9 9 8 8 8 7 7 7 8 9 9 10 10 11 11 11 11 10 10 8 5 4 6 8 8 8 9
16 17 17 17 17 17 18 19 20 21 21 22 22 22 22 22 20 18 15 13 13 15 17 19 20 20 20 19 17 14 11 10 9 9 9 9 11 12 14 16 17 17 16 14 13 12 11 11 10 10 9 7 7 7 7 7 6 6 6 6 5 5 4 4 5 5 6 6 7 7 8 8 9 9 9 9 9 8 6 3 3 6 7 7 7 8
Wind_Direction
298 301 305 307 309 310 312 317 320 321 322 325 327 328 327 324 322 321 320 320 319 319 318 316 314 311 307 304 301 299 298 296 294 291 288 284 281 279 277 275 275 276 277 278 279 279 280 281 280 279 279 278 278 279 279 278 277 277 276 275 274 273 273 272 272 271 271 270 270 269 268 268 267 267 266 266 265 265 266 266 267 268 268 268 267 265
299 301 303 306 307 307 309 314 318 319 319 321 323 325 324 322 321 320 320 319 320 320 321 321 320 317 314 312 310 310 311 312 311 308 304 299 294 289 284 281 279 278 277 277 277 277 278 278 278 277 276 276 276 277 278 278 277 276 275 273 272 271 271 271 271 271 271 271 271 270 269 268 268 267 267 266 265 265 265 265 265 265 266 267 268 268
299 300 301 302 303 304 304 309 314 317 317 318 320 322 322 320 319 318 318 319 320 321 322 323 323 322 319 317 316 317 319 321 321 320 319 317 313 307 300 294 289 284 281 278 276 275 274 274 274 273 273 272 273 274 275 275 275 274 273 272 271 269 268 267 267 267 267 267 268 268 268 267 267 267 266 266 266 265 264 264 263 263 264 264 266 268
297 297 298 299 300 300 300 305 310 314 316 316 318 320 320 318 317 316 317 317 319 321 323 324 324 323 322 321 321 321 323 324 324 324 324 324 324 321 315 308 300 292 285 279 275 272 271 271 271 271 271 271 271 272 272 272 273 273 274 273 272 270 269 267 266 265 264 264 264 264 265 265 265 265 265 264 264 264 264 264 263 262 262 262 263 265
294 294 296 297 297 298 299 303 307 311 313 314 315 316 316 315 314 314 315 316 318 320 322 323 324 323 322 322 323 324 325 325 325 325 325 325 325 324 321 317 309 300 290 282 276 272 270 270 270 271 272 272 272 272 273 274 275 277 278 277 276 274 273 271 270 269 269 268 267 267 267 267 266 266 265 264 264 263 263 263 263 263 263 263 264 265
294 294 294 294 295 295 297 300 303 306 309 309 311 312 312 312 311 310 310 312 314 317 319 321 322 322 322 322 323 324 324 325 324 324 324 325 325 325 324 322 317 309 298 288 280 275 272 271 271 272 272 272 273 273 276 278 280 281 281 281 280 279 278 276 275 275 274 274 273 273 272 271 271 270 268 267 266 265 264 264 264 264 264 264 264 265
294 294 293 293 293 294 295 297 299 301 304 305 307 309 310 309 307 305 305 307 310 314 317 319 321 321 321 321 321 322 322 323 323 323 324 325 326 327 327 325 322 317 310 301 293 287 283 281 278 276 274 274 274 275 278 280 281 281 280 280 279 278 277 277 276 275 275 274 274 274 273 273 273 272 271 270 269 268 268 267 266 266 265 265 265 266
293 293 292 292 293 293 294 294 295 297 300 302 305 307 308 307 305 303 303 305 308 311 313 316 318 319 319 319 318 317 318 319 320 321 322 324 326 327 327 325 323 320 316 313 310 306 302 298 293 287 283 281 280 281 283 283 283 281 279 277 276 274 273 273 272 272 271 271 271 270 270 270 270 270 270 270 270 270 270 269 269 268 267 267 266 266
288 290 290 291 291 291 292 293 293 295 297 299 301 302 304 305 304 303 303 304 306 308 310 312 314 316 317 318 316 314 314 315 316 317 319 320 323 324 324 322 320 317 314 313 312 310 308 305 300 295 289 286 285 285 286 287 286 285 283 279 276 273 271 270 270 269 269 269 268 268 267 266 266 266 266 267 267 268 268 269 269 269 268 268 267 267
286 288 289 291 291 290 290 292 294 296 297 298 298 299 300 301 301 300 300 302 304 306 307 307 309 312 314 316 316 314 313 313 315 316 317 318 321 322 322 320 317 314 312 310 309 308 307 305 301 295 288 283 280 280 281 283 284 285 284 282 280 277 274 273 272 272 271 271 270 269 268 267 266 265 264 264 264 264 265 265 266 266 266 266 266 266
286 287 288 289 290 290 289 291 294 298 299 299 298 298 298 299 298 297 297 299 301 303 304 304 305 307 310 312 314 314 312 312 313 315 317 319 321 323 323 321 318 315 314 312 311 311 311 311 308 302 294 286 280 277 276 277 278 279 279 278 278 276 275 274 274 274 274 274 274 273 273 272 270 268 266 265 264 263 263 263 263 264 264 264 264 265
284 285 285 286 288 289 289 291 295 298 300 299 298 296 296 296 296 295 294 294 295 298 300 301 303 304 306 307 310 311 311 310 311 313 315 317 319 321 322 322 320 319 318 317 317 317 318 319 318 315 310 301 291 283 277 274 272 272 272 272 271 271 271 271 271 272 272 273 273 273 273 274 273 272 271 269 268 266 264 264 264 264 264 263 263 263
283 284 284 285 286 288 291 294 296 297 297 296 294 292 292 294 296 294 291 291 292 294 298 301 302 303 305 305 306 307 309 310 311 312 313 314 316 318 319 320 319 320 320 320 320 320 321 322 322 322 320 315 307 295 284 276 271 270 269 269 268 267 267 267 267 268 269 270 270 271 271 272 272 273 273 272 271 270 268 268 267 266 265 264 264 263
284 286 287 288 289 290 292 293 294 293 291 289 288 289 292 295 296 294 290 289 291 295 298 300 301 303 304 304 304 305 306 308 310 312 312 311 312 313 315 316 316 317 318 318 318 319 320 320 320 321 320 317 310 301 290 282 276 273 273 272 271 269 268 267 266 267 267 268 268 268 268 269 270 271 273 274 274 273 272 271 269 268 267 267 266 266
287 288 288 288 287 288 288 289 289 288 288 289 291 294 296 297 296 294 291 292 294 297 298 299 300 301 302 302 302 303 304 306 307 308 309 309 309 309 310 311 312 314 315 314 314 315 316 316 317 317 316 312 306 299 293 286 282 280 280 280 278 276 273 270 268 267 267 266 266 266 267 267 269 271 272 274 275 275 274 274 273 272 272 271 270 269
285 285 284 284 284 285 285 286 286 288 290 294 297 298 298 296 294 292 291 294 296 298 298 298 298 299 300 300 301 301 302 302 303 304 305 305 305 305 305 305 307 309 311 310 310 311 313 313 314 314 313 310 305 299 294 289 286 285 285 286 285 283 279 275 271 268 267 266 266 266 267 268 270 271 272 273 274 274 274 274 274 274 274 274 274 273
282 282 281 281 282 283 285 286 287 290 294 297 298 297 294 290 287 287 290 293 296 297 297 297 297 297 297 299 299 299 298 297 298 300 301 302 302 302 301 301 302 304 307 307 308 308 309 310 311 312 312 310 306 301 296 292 289 289 290 290 290 288 284 279 274 269 267 266 267 268 269 271 272 272 272 272 272 272 273 273 273 273 273 274 274 274
280 280 279 279 280 282 284 286 288 291 294 296 295 292 289 285 285 288 291 293 295 296 296 296 294 292 292 293 295 296 296 293 293 296 298 298 299 300 300 299 299 301 304 306 307 308 307 307 309 311 311 310 307 302 298 294 292 292 292 292 292 289 286 281 276 272 269 269 269 271 272 273 273 272 272 271 271 271 271 272 272 272 272 272 273 273
280 279 279 279 281 282 284 285 287 289 291 291 290 288 286 286 288 291 292 294 296 296 295 294 291 289 288 288 291 294 295 292 291 292 294 294 296 298 299 297 297 299 302 305 307 308 307 307 308 310 311 311 308 304 299 295 293 292 291 290 288 286 282 279 276 273 271 271 271 271 272 272 271 271 270 270 270 270 271 271 271 271 271 272 272 272
281 281 281 282 283 283 283 284 285 286 287 288 289 288 287 288 290 292 293 294 295 296 296 294 291 289 288 288 291 293 293 291 289 290 290 290 293 296 298 297 296 297 301 305 307 307 307 307 309 311 312 312 310 306 302 297 294 291 289 287 283 281 278 276 273 271 269 269 269 270 270 270 269 269 269 269 270 270 270 271 271 271 271 271 272 272
280 280 280 280 280 281 280 280 281 283 286 289 289 288 287 288 290 292 293 294 294 295 295 293 292 292 291 290 289 289 290 289 288 288 289 289 292 295 298 297 297 298 300 305 308 308 307 308 310 312 314 314 313 310 306 302 298 294 289 284 281 279 276 274 271 269 268 267 267 268 268 269 269 270 270 271 271 271 271 271 271 271 271 271 272 272
279 278 277 277 277 278 279 280 283 286 289 291 291 290 288 288 288 290 292 294 294 293 293 292 293 294 294 292 289 289 289 289 288 288 289 289 291 294 298 299 298 298 300 305 307 308 308 309 310 313 316 317 316 314 311 308 304 298 290 284 280 277 275 272 270 269 268 267 267 268 269 270 271 272 273 273 273 273 273 273 272 273 273 273 273 272
280 280 281 281 282 282 284 287 289 292 293 293 292 291 291 291 291 291 293 293 293 291 291 291 293 295 296 295 294 293 293 294 293 291 289 286 287 292 299 300 299 298 299 303 306 307 307 307 309 312 316 318 318 318 316 312 308 302 296 288 281 276 273 270 269 267 266 267 268 269 270 272 272 273 274 274 274 274 274 275 276 277 278 278 276 275
287 287 288 289 289 289 290 292 292 293 293 292 291 291 291 291 291 292 292 291 289 288 288 289 291 292 293 293 293 295 298 299 298 293 286 282 285 291 298 300 298 297 298 301 303 303 303 304 306 310 313 317 319 320 318 315 310 304 298 292 284 276 271 270 268 266 266 266 268 270 272 273 273 274 274 274 274 275 276 277 279 280 281 281 281 280
289 290 291 291 290 290 290 290 289 288 287 287 287 287 287 287 287 287 287 284 283 283 285 287 288 288 287 288 291 296 299 300 300 295 286 282 284 290 295 297 297 296 298 301 302 302 301 302 304 307 311 315 318 320 319 316 312 306 298 291 283 275 269 268 267 265 265 267 269 272 273 273 274 274 274 274 275 276 277 279 280 281 282 283 284 283
287 289 290 289 288 287 286 285 284 284 283 283 282 283 285 286 287 286 284 282 281 281 283 284 285 285 286 289 293 296 299 300 298 293 287 284 284 287 292 295 297 298 299 301 301 300 299 299 301 305 309 312 315 317 318 317 315 310 302 293 284 275 269 266 266 266 268 270 272 273 273 274 274 275 275 275 275 276 278 280 282 283 284 284 284 283
289 291 292 290 287 286 286 286 286 287 287 286 285 286 288 290 292 293 291 287 283 280 280 281 283 286 288 290 292 294 295 295 292 287 284 283 283 286 292 297 299 299 299 300 301 301 299 298 299 304 308 310 312 314 316 317 318 315 309 300 290 280 273 269 269 271 273 274 275 276 276 276 276 275 275 275 276 278 280 282 283 285 285 285 285 283
291 292 291 288 287 288 291 292 294 295 296 296 295 294 293 294 295 295 292 288 284 280 279 282 285 287 289 288 288 289 291 290 290 290 290 288 286 288 295 301 303 301 299 300 301 302 301 299 300 303 307 310 312 313 314 315 316 316 313 307 299 291 284 280 278 279 280 281 281 281 281 280 279 278 277 278 279 280 281 283 284 285 285 285 284 284
289 288 284 283 286 290 293 294 296 298 299 299 297 296 295 295 295 294 291 288 285 283 284 285 287 288 287 287 288 290 290 292 295 298 300 297 292 292 297 301 301 300 300 301 303 304 302 300 300 302 305 309 311 311 311 310 310 311 310 307 301 295 291 288 286 286 286 286 286 286 285 283 282 281 280 280 281 281 282 283 283 284 284 285 285 286
289 285 279 281 287 292 295 296 297 298 298 297 296 295 294 294 294 293 292 289 286 285 286 287 287 287 287 288 290 291 291 293 296 297 296 293 290 290 293 294 294 296 300 305 307 306 302 300 299 300 302 304 304 303 303 304 304 304 304 302 299 295 292 290 289 289 289 290 290 290 289 287 285 284 283 282 282 282 282 282 283 284 285 286 287 288
293 289 284 288 294 298 300 300 300 299 298 297 295 294 293 292 291 290 289 288 287 286 286 285 284 284 283 284 284 284 283 284 285 285 285 284 282 281 284 287 289 290 294 301 304 304 301 297 296 295 295 295 294 295 297 298 299 299 299 298 296 293 291 289 289 289 290 291 292 292 292 290 288 287 285 284 284 283 282 282 283 284 285 287 288 290
299 298 297 298 301 303 303 302 301 300 298 296 295 293 291 289 287 286 285 285 285 285 285 283 282 281 280 278 276 276 278 281 285 287 287 283 280 280 282 285 288 289 290 293 295 295 293 292 292 291 291 291 292 294 296 298 298 297 297 295 294 291 289 287 287 287 289 291 292 292 292 291 289 288 286 285 284 283 283 283 283 284 286 287 289 291
302 303 303 302 303 304 303 302 301 299 298 295 292 289 286 283 282 281 282 284 285 286 286 285 284 283 282 281 280 280 282 286 290 292 290 286 285 286 287 288 289 290 292 293 293 290 287 287 288 290 291 291 293 296 298 300 299 298 296 295 293 290 287 285 285 285 287 290 291 292 292 291 289 288 286 285 283 282 282 282 283 284 285 286 287 289
301 303 304 305 304 304 303 303 302 300 297 293 288 284 279 277 276 278 282 286 289 291 291 289 287 285 284 284 284 284 284 286 288 288 286 286 288 289 289 289 290 291 294 295 294 291 287 286 286 288 290 292 293 295 298 300 300 299 297 295 293 290 287 284 283 284 287 289 291 292 292 292 290 288 286 285 283 283 282 282 282 282 282 282 283 285
302 304 305 305 305 305 305 305 303 300 295 289 282 277 273 272 274 278 284 290 295 296 296 293 289 286 283 281 280 281 282 282 281 281 281 283 285 286 286 287 287 290 292 293 293 291 288 286 286 286 288 291 292 293 295 298 299 298 297 295 294 291 287 284 284 285 288 290 293 294 294 294 292 290 289 287 285 284 282 281 281 280 280 280 280 281
303 304 304 304 304 305 306 305 304 300 294 287 279 273 270 270 273 279 286 293 297 299 298 295 291 287 282 277 276 276 278 278 279 280 281 283 284 285 286 287 289 291 292 291 290 288 286 285 285 286 288 289 291 292 293 295 295 295 295 295 294 291 288 285 285 287 290 293 295 296 296 295 294 293 291 290 288 285 283 282 281 280 280 280 280 281
302 302 302 301 302 303 304 304 302 299 296 290 282 274 271 271 275 281 287 293 297 298 297 295 292 288 284 278 274 273 274 276 278 279 281 283 285 287 287 287 287 287 286 284 283 283 282 283 285 286 287 287 287 288 290 291 291 290 291 292 292 289 286 285 286 288 292 295 296 297 297 296 295 294 294 292 290 287 285 283 282 281 280 281 281 282
300 299 299 300 301 302 303 302 300 299 297 292 285 278 275 275 278 283 289 293 296 297 297 295 293 290 286 282 279 277 277 278 279 281 282 284 284 284 283 281 280 279 276 275 275 276 278 281 284 285 286 285 284 285 286 286 286 286 288 289 288 286 283 284 286 289 293 295 296 296 295 295 295 295 295 294 291 289 286 284 283 282 282 282 283 283
298 298 298 299 301 302 301 300 299 297 295 291 286 281 279 280 283 287 292 295 296 297 296 294 293 290 289 286 285 284 283 284 285 285 285 284 283 280 278 277 276 277 277 277 277 277 279 280 280 281 282 283 284 284 285 284 283 284 286 286 283 280 279 281 284 288 291 293 294 293 294 294 294 295 295 294 293 290 288 286 284 283 282 283 284 285
297 297 299 300 302 302 300 298 296 295 292 289 285 283 282 284 288 291 294 296 297 296 296 294 293 292 292 292 291 290 290 290 290 290 288 285 281 277 275 274 275 278 280 281 282 282 282 282 282 281 281 281 282 283 284 283 282 283 282 281 278 276 276 278 282 285 288 290 291 292 293 294 294 295 295 294 293 290 288 287 286 285 285 284 285 286
296 297 299 301 302 302 300 297 295 292 289 287 284 282 283 287 292 295 296 297 298 297 297 297 296 296 297 297 297 297 298 299 299 297 293 287 280 274 271 269 271 275 280 282 283 283 283 284 284 284 283 282 282 283 282 281 280 280 278 276 275 277 278 279 280 282 285 286 288 290 291 292 293 294 294 294 292 290 289 288 288 288 287 286 286 287
296 297 299 301 301 300 298 296 293 290 286 283 280 280 284 290 294 296 298 298 299 299 300 300 301 302 304 305 306 307 308 310 310 306 299 291 281 273 269 268 270 274 278 282 283 283 281 282 283 284 284 285 285 285 283 280 277 274 272 271 273 276 278 277 277 278 279 281 283 285 287 289 291 292 293 293 293 292 290 289 288 287 285 285 285 288
296 296 296 296 296 295 294 292 288 284 280 277 277 282 291 298 301 302 301 298 298 300 302 304 306 308 309 309 310 312 315 316 316 310 303 294 285 276 271 272 276 280 284 287 287 286 283 282 282 282 283 285 285 285 284 281 277 274 271 270 271 274 275 275 276 277 277 278 280 282 285 288 290 291 292 294 295 294 292 289 287 285 284 284 285 288
289 289 288 288 288 290 291 289 284 278 274 277 285 296 305 309 309 305 302 300 300 302 304 307 310 311 310 308 308 312 315 319 317 310 300 291 283 279 278 283 287 291 293 294 295 294 292 289 287 285 285 285 285 284 283 281 279 277 274 270 267 266 267 270 273 276 277 278 280 282 285 288 289 292 294 296 298 297 294 290 286 285 284 285 287 289
286 286 287 289 292 296 297 292 284 279 281 291 302 311 316 318 313 305 303 301 302 304 307 311 313 311 307 306 307 311 315 317 316 309 296 284 279 281 288 295 299 298 296 293 291 292 293 291 289 287 286 285 284 282 281 279 278 276 274 270 264 260 259 263 267 270 272 275 278 280 283 285 288 291 295 297 299 297 294 290 287 285 284 285 286 288
295 297 299 300 301 299 293 285 280 283 293 305 313 318 320 321 317 311 305 301 302 305 309 312 310 306 304 305 308 311 314 316 315 308 297 288 285 288 294 299 302 301 297 290 284 280 278 279 281 282 285 285 284 282 280 278 276 275 273 270 266 263 262 263 263 265 268 272 275 277 280 283 287 290 294 296 298 297 294 290 288 286 284 283 284 285
306 305 303 301 296 288 279 277 282 291 301 310 316 320 322 322 317 311 304 300 300 304 308 307 305 303 305 308 311 313 315 317 317 314 307 301 299 299 302 305 305 305 301 296 289 283 278 276 276 277 280 283 284 283 282 280 278 276 274 273 271 268 265 264 264 266 267 270 273 276 278 283 287 290 294 296 298 298 297 292 287 284 281 280 280 281
306 301 294 288 281 275 274 280 290 300 307 312 316 319 321 321 317 310 302 297 297 299 301 299 300 303 308 312 315 315 315 316 318 319 316 314 312 312 312 314 315 313 309 303 296 289 284 280 278 278 278 280 281 282 282 282 281 279 277 276 274 272 270 270 269 268 267 269 271 274 278 282 287 291 295 298 301 304 304 298 287 278 275 275 276 279
300 292 285 280 278 279 282 290 298 306 310 313 316 318 319 319 316 310 301 295 295 296 296 295 298 303 309 313 316 316 315 315 316 319 321 325 327 327 327 327 327 325 320 313 304 295 287 283 281 282 284 287 287 287 287 286 285 282 279 275 274 273 273 274 273 270 268 268 270 273 278 283 288 294 300 303 308 312 315 307 284 267 265 269 273 278
296 290 287 285 285 288 294 301 307 310 313 314 316 318 318 317 315 309 302 295 293 293 292 294 297 303 309 313 316 316 314 313 314 318 325 332 336 335 333 333 333 332 329 324 318 309 301 295 293 293 297 301 305 305 302 298 293 289 282 276 272 270 270 271 271 269 267 268 271 276 281 287 292 299 306 310 313 317 321 312 274 253 257 263 270 278
294 293 292 293 295 300 305 309 312 313 314 315 316 317 316 315 312 306 300 294 291 290 291 293 297 302 308 313 315 314 310 308 310 317 327 336 336 332 328 330 332 333 332 332 331 328 323 319 316 317 319 323 326 327 323 317 309 300 292 284 276 267 262 261 263 264 267 271 277 284 290 296 303 308 314 316 319 323 326 309 245 240 251 257 265 275